Belmar-Farmingdale, NJ

4:02 PM EST on December 09, 2019 (GMT -0500)
Allaire

Weather History for KBLM - October, 2019

Change the Weather History Date:

Saturday, October 12, 2019

  Actual Average Record
Temperature  
Mean Temperature 61 °F -  
Max Temperature 70 °F 62 °F 75 °F (2001)
Min Temperature 54 °F 47 °F 33 °F (1996)
Degree Days  
Heating Degree Days 4    
Growing Degree Days 11 (Base 50)    
Moisture  
Dew Point 50 °F    
Average Humidity 71    
Maximum Humidity 84    
Minimum Humidity 52    
Precipitation  
Precipitation 0.00 in - - ()
Sea Level Pressure  
Sea Level Pressure 29.99 in    
Wind  
Wind Speed 6 mph ()    
Max Wind Speed 10 mph    
Max Gust Speed -    
Visibility 10.0 miles    
Events      
Averages and records for this station are not official NWS values.
T = Trace of Precipitation, MM = Missing Value Source: Averaged Metar Reports

Daily Weather History Graph

Daily Weather History Graph

Search for Another Location

Airport or City:

Astronomy

Oct. 12, 2019 Rise Set
Actual Time 7:03 AM EDT 6:21 PM EDT
Civil Twilight 6:36 AM EDT 6:48 PM EDT
Nautical Twilight 6:04 AM EDT 7:20 PM EDT
Astronomical Twilight 5:33 AM EDT 7:51 PM EDT
Moon 6:16 PM EDT (10/12) 5:38 AM EDT (10/12)
Length of Visible Light 12h 12m
Length of Day
11h 17m
Waxing Gibbous, 99% of the Moon is Illuminated
Oct 12
Waxing Gibbous
Oct 13
Full
Oct 21
Last Quarter
Oct 27
New
Nov 4
First Quarter

Hourly Weather History & Observations

Time (EDT) Temp. Dew Point Humidity Pressure Visibility Wind Dir Wind Speed Gust Speed Precip Events Conditions
12:56 AM 57.0 °F 46.0 °F 67% 30.02 in 10.0 mi North 10.4 mph - N/A   Overcast
1:56 AM 55.9 °F 46.9 °F 72% 30.01 in 10.0 mi North 8.1 mph - N/A   Overcast
2:56 AM 55.9 °F 46.9 °F 72% 30.00 in 10.0 mi NNW 6.9 mph - N/A   Overcast
3:56 AM 55.9 °F 46.9 °F 72% 29.98 in 10.0 mi North 9.2 mph - N/A   Overcast
4:56 AM 55.9 °F 48.0 °F 75% 29.98 in 10.0 mi North 8.1 mph - N/A   Overcast
5:56 AM 55.9 °F 48.0 °F 75% 29.99 in 10.0 mi NW 8.1 mph - N/A   Overcast
6:56 AM 55.0 °F 48.0 °F 77% 29.98 in 10.0 mi North 4.6 mph - N/A   Overcast
7:56 AM 54.0 °F 46.9 °F 77% 30.00 in 10.0 mi West 6.9 mph - N/A   Overcast
8:56 AM 55.0 °F 46.9 °F 74% 30.00 in 10.0 mi NW 6.9 mph - N/A   Overcast
9:56 AM 57.0 °F 48.0 °F 72% 30.01 in 10.0 mi NW 6.9 mph - N/A   Overcast
10:56 AM 59.0 °F 48.9 °F 69% 30.01 in 10.0 mi NNE 5.8 mph - N/A   Mostly Cloudy
11:04 AM 57.2 °F 48.2 °F 72% 30.00 in 10.0 mi Variable 3.5 mph - N/A   Scattered Clouds
11:37 AM 60.8 °F 48.2 °F 63% 29.99 in 10.0 mi NW 6.9 mph - N/A   Mostly Cloudy
11:56 AM 63.0 °F 48.9 °F 60% 30.00 in 10.0 mi Variable 5.8 mph - N/A   Mostly Cloudy
12:31 PM 62.6 °F 50.0 °F 63% 29.98 in 10.0 mi WNW 6.9 mph - N/A   Partly Cloudy
12:56 PM 64.9 °F 50.0 °F 58% 29.98 in 10.0 mi WNW 6.9 mph - N/A   Partly Cloudy
1:56 PM 68.0 °F 50.0 °F 52% 29.96 in 10.0 mi NW 8.1 mph - N/A   Clear
2:56 PM 68.0 °F 51.1 °F 55% 29.95 in 10.0 mi East 6.9 mph - N/A   Clear
3:56 PM 64.9 °F 52.0 °F 63% 29.95 in 10.0 mi East 5.8 mph - N/A   Clear
4:56 PM 63.0 °F 53.1 °F 70% 29.96 in 10.0 mi SSE 4.6 mph - N/A   Clear
5:56 PM 61.0 °F 53.1 °F 75% 29.96 in 10.0 mi SE 5.8 mph - N/A   Partly Cloudy
6:56 PM 61.0 °F 54.0 °F 78% 29.97 in 10.0 mi SSW 3.5 mph - N/A   Clear
7:56 PM 59.0 °F 54.0 °F 83% 29.98 in 10.0 mi SW 4.6 mph - N/A   Clear
8:56 PM 57.9 °F 53.1 °F 84% 30.00 in 10.0 mi West 5.8 mph - N/A   Partly Cloudy
9:56 PM 57.9 °F 51.1 °F 78% 30.01 in 10.0 mi West 4.6 mph - N/A   Mostly Cloudy
10:56 PM 57.0 °F 50.0 °F 77% 30.01 in 10.0 mi West 4.6 mph - N/A   Clear
11:56 PM 55.9 °F 50.0 °F 80% 30.01 in 10.0 mi West 4.6 mph - N/A   Clear